This demonstration page uses our WeatherBlox Daily Observations layout. Learn more.

Left ArrowRight Arrow

30.21309, -93.2044

Hourly Observations for March 18, 2015

Temp ( °F °C ) Dew Point ( °F °C ) Humidity (%) Winds ( mph kmh ) Pressure ( in mb ) Visibility ( mi km ) Precip ( " mm )
12:15 am 00:15 Clear 67 19.5 66 19 97 97 SW 6 9 30.06 1018 7 11 0.00 0.00
12:35 am 00:35 Clear 67 19.5 66 19 97 97 SSW 7 11 30.06 1018 7 11 0.00 0.00
12:55 am 00:55 Clear 67 19.5 66 18.8 96 96 SSW 5 7 30.06 1018 10 16 0.00 0.00
1:15 am 01:15 Clear 67 19.6 66 18.9 96 96 SW 5 7 30.06 1018 10 16 0.00 0.00
1:35 am 01:35 Clear 67 19.5 66 18.8 96 96 SW 3 6 30.03 1017 10 16 0.00 0.00
1:55 am 01:55 Clear 67 19.4 66 18.7 96 96 SW 3 6 30.03 1017 10 16 0.00 0.00
2:15 am 02:15 Clear 67 19.3 65 18.6 96 96 Calm 30.03 1017 10 16 0.00 0.00
2:35 am 02:35 Partly Cloudy 67 19.2 65 18.6 96 96 WSW 3 6 30.03 1017 10 16 0.00 0.00
2:55 am 02:55 Mostly Cloudy 67 19.4 66 18.7 96 96 W 7 11 30.03 1017 10 16 0.00 0.00
3:15 am 03:15 Mostly Cloudy 67 19.3 65 18.6 96 96 W 6 9 30.03 1017 7 11 0.00 0.00
3:35 am 03:35 Cloudy with Mist and Fog 67 19.2 66 18.7 97 97 W 3 6 30.03 1017 4 6 0.00 0.00
3:55 am 03:55 Cloudy with Mist and Fog 66 19 65 18.6 98 98 W 7 11 30.03 1017 4 6 0.00 0.00
4:15 am 04:15 Cloudy with Mist and Fog 66 19 65 18.6 98 98 W 8 13 30.03 1017 4 6 0.00 0.00
4:35 am 04:35 Cloudy 67 19.2 65 18.4 95 95 W 6 9 30.03 1017 10 16 0.00 0.00
4:55 am 04:55 Mostly Cloudy 66 19 65 18.1 95 95 W 5 7 30.03 1017 10 16 0.00 0.00
5:15 am 05:15 Cloudy 66 19.1 65 18.2 95 95 WNW 3 6 30.03 1017 10 16 0.00 0.00
6:00 am 06:00 Partly Cloudy with Mist and Fog 64 18 64 18 100 100 Calm 30.03 1017 4 6 0.00 0.00
7:55 am 07:55 Mostly Cloudy with Mist and Fog 64 18 64 18 100 100 Calm 30.06 1018 4 6 0.00 0.00
9:55 am 09:55 Mostly Cloudy 70 21 64 18 83 83 Calm 30.09 1019 10 16 0.00 0.00
10:55 am 10:55 Partly Cloudy 70 21 66 19 88 88 Calm 30.09 1019 7 11 0.00 0.00
11:55 am 11:55 Partly Cloudy 70 21 66 19 88 88 Calm 30.09 1019 7 11 0.00 0.00
2:55 pm 14:55 Partly Cloudy 72 22 68 20 88 88 S 8 13 30.00 1016 7 11 0.00 0.00
3:55 pm 15:55 Partly Cloudy 73 23 66 19 78 78 SW 7 11 29.97 1015 10 16 0.00 0.00
4:55 pm 16:55 Mostly Cloudy 75 24 66 19 74 74 S 7 11 29.97 1015 10 16 0.00 0.00
5:50 pm 17:50 Mostly Cloudy 73 23 66 19 78 78 S 8 13 29.97 1015 10 16 0.00 0.00
6:50 pm 18:50 Mostly Cloudy 72 22 66 19 83 83 SSW 8 13 29.97 1015 10 16 0.00 0.00
7:50 pm 19:50 Mostly Cloudy 70 21 64 18 83 83 SSW 7 11 29.97 1015 10 16 0.00 0.00
8:50 pm 20:50 Cloudy 70 21 66 19 88 88 S 6 9 30.00 1016 10 16 0.00 0.00
9:50 pm 21:50 Cloudy 66 19 64 18 94 94 S 6 9 30.00 1016 10 16 0.00 0.00
10:15 pm 22:15 Clear 66 19.1 65 18.4 96 96 S 3 6 30.03 1017 7 11 0.00 0.00
10:35 pm 22:35 Clear with Mist and Fog 64 17.7 63 17.3 98 98 Calm 30.03 1017 4 6 0.00 0.00
10:55 pm 22:55 Mostly Cloudy with Mist and Fog 64 17.9 64 17.6 98 98 S 3 6 30.03 1017 1 2 0.00 0.00
11:15 pm 23:15 Mostly Cloudy with Mist and Fog 63 17.1 63 17 99 99 Calm 30.03 1017 1 2 0.00 0.00
11:35 pm 23:35 Mostly Cloudy with Fog 62 16.6 62 16.6 100 100 S 5 7 30.00 1016 1 1 0.00 0.00
11:55 pm 23:55 Clear with Mist and Fog 64 17.5 63 17.3 99 99 S 3 6 30.00 1016 3 5 0.00 0.00

Powered by AerisWeather